Content
SEND FEEDBACK

Daily
Averages
Monthly
Summary
United States of America

NORMAN - UNIVERSITY OF OKLAHOMA, OKLAHOMA


Home > North America > United States > Oklahoma
Elevation: 1170 feet     Latitude: 35 13N     Longitude: 097 28W

WEATHER
 
SELECT A DAY
Number of Records: 344,003;   Date Range: 9/29/00 - 11/26/14
 
SHARE

PRINT THIS DATA

[ ← Previous Day ]
WEATHER ALMANAC - FEBRUARY 13, 2013
[ Next Day → ]
[ °C ]   °F
Weather ElementAverageHighLow
Temperature39.9 °F53.6 °F (2:55 pm)32 °F (12:35 am)
Dewpoint32.1 °F37.4 °F (12:55 pm)28.4 °F (5:15 pm)
Humidity77.5 %100 % (12:35 am)41 % (3:55 pm)
Barometer30.04 in30.09 in (8:35 am)29.99 in (3:15 pm)
Wind Speed5.2 mph10.4 mph (12:35 pm)
Weather ElementAverage
Visibility7.7 mi
Wind DirectionS (184.8 °)

Weather ElementTotal
Precipitation---
Heating Degree Days22.2 (Base 65)
Averaged from 71 records on February 13, 2013
WEATHER CONDITIONS BREAKOUT
WIND DIRECTION BREAKOUT
WEATHER BY HOUR - FEBRUARY 13, 2013
[ °C ]   °F
Local TimeTemperatureDewpointHumidityBarometerVisibilityWind DirectionWind SpeedGust SpeedPrecipitationEventsConditions
12:35 AM32.0 °F32.0 °F100 %30.06 in10.0 miNW (320°)4.6 mphOvercast
12:55 AM32.0 °F32.0 °F100 %30.06 in7.0 miNW (310°)5.8 mphOvercast
1:15 AM32.0 °F32.0 °F100 %30.06 in7.0 miWNW (300°)6.9 mphOvercast
1:35 AM32.0 °F32.0 °F100 %30.06 in7.0 miWest (280°)8.1 mphOvercast
1:55 AM32.0 °F32.0 °F100 %30.07 in4.0 miWest (270°)8.1 mphOvercast
2:15 AM32.0 °F32.0 °F100 %30.06 in2.5 miWNW (290°)8.1 mphOvercast
2:35 AM32.0 °F32.0 °F100 %30.06 in2.5 miWNW (290°)8.1 mphOvercast
2:55 AM32.0 °F32.0 °F100 %30.07 in1.8 miWest (270°)9.2 mphOvercast
3:15 AM32.0 °F32.0 °F100 %30.06 in0.8 miWest (280°)9.2 mphOvercast
3:35 AM32.0 °F32.0 °F100 %30.06 in0.8 miWest (280°)9.2 mphOvercast
3:55 AM32.0 °F32.0 °F100 %30.06 in0.8 miWest (280°)8.1 mphOvercast
4:15 AM32.0 °F32.0 °F100 %30.06 in0.8 miWest (280°)5.8 mphOvercast
4:35 AM32.0 °F32.0 °F100 %30.06 in1.0 miWest (280°)6.9 mphOvercast
4:55 AM32.0 °F32.0 °F100 %30.06 in2.0 miWest (280°)9.2 mphOvercast
5:15 AM32.0 °F32.0 °F100 %30.06 in3.0 miWest (270°)6.9 mphOvercast
5:35 AM32.0 °F32.0 °F100 %30.06 in1.8 miWest (270°)3.5 mphOvercast
5:55 AM32.0 °F32.0 °F100 %30.05 in2.0 miWSW (240°)5.8 mphOvercast
6:15 AM32.0 °F32.0 °F100 %30.06 in4.0 miWSW (240°)5.8 mphOvercast
6:35 AM32.0 °F32.0 °F100 %30.06 in7.0 miWSW (250°)4.6 mphOvercast
6:55 AM32.0 °F32.0 °F100 %30.07 in7.0 miWSW (250°)5.8 mphOvercast
7:15 AM32.0 °F32.0 °F100 %30.07 in5.0 miCalmOvercast
7:35 AM32.0 °F32.0 °F100 %30.08 in4.0 miCalmOvercast
7:55 AM32.0 °F32.0 °F100 %30.08 in5.0 miCalmOvercast
8:15 AM32.0 °F32.0 °F100 %30.08 in5.0 miCalmOvercast
8:35 AM32.0 °F32.0 °F100 %30.09 in5.0 miCalmOvercast
8:55 AM32.0 °F32.0 °F100 %30.09 in5.0 miCalmOvercast
9:15 AM32.0 °F32.0 °F100 %30.09 in5.0 miCalmOvercast
9:35 AM33.8 °F33.8 °F100 %30.09 in7.0 miCalmOvercast
9:55 AM35.6 °F33.8 °F93 %30.09 in10.0 miCalmScattered Clouds
10:15 AM37.4 °F35.6 °F93 %30.09 in10.0 miCalmScattered Clouds
10:35 AM39.2 °F35.6 °F87 %30.08 in10.0 miCalmClear
10:55 AM41.0 °F35.6 °F81 %30.09 in10.0 miCalmClear
11:15 AM42.8 °F35.6 °F76 %30.09 in10.0 miCalmClear
11:35 AM44.6 °F35.6 °F71 %30.08 in10.0 miCalmClear
11:55 AM44.6 °F35.6 °F71 %30.08 in10.0 miSW (230°)9.2 mphClear
12:15 PM46.4 °F35.6 °F66 %30.07 in10.0 miSW (230°)9.2 mphClear
12:35 PM46.4 °F35.6 °F66 %30.06 in10.0 miSW (220°)10.4 mphClear
12:55 PM50.0 °F37.4 °F62 %30.04 in10.0 miSW (220°)4.6 mphClear
1:15 PM50.0 °F37.4 °F62 %30.03 in10.0 miWSW (240°)6.9 mphClear
1:35 PM50.0 °F37.4 °F62 %30.02 in10.0 miWSW (240°)10.4 mphClear
1:55 PM51.8 °F35.6 °F54 %30.02 in10.0 miWSW (240°)8.1 mphClear
2:15 PM51.8 °F35.6 °F54 %30.01 in10.0 miSW (230°)6.9 mphClear
2:35 PM51.8 °F33.8 °F50 %30.01 in10.0 miWSW (250°)9.2 mphClear
2:55 PM53.6 °F32.0 °F44 %30.00 in10.0 miWSW (240°)8.1 mphClear
3:15 PM53.6 °F32.0 °F44 %29.99 in10.0 miSW (230°)9.2 mphClear
3:35 PM53.6 °F32.0 °F44 %29.99 in10.0 miWest (260°)8.1 mphClear
3:55 PM53.6 °F30.2 °F41 %29.99 in10.0 miWSW (240°)10.4 mphClear
4:15 PM53.6 °F30.2 °F41 %29.99 in10.0 miWest (280°)10.4 mphClear
4:35 PM53.6 °F30.2 °F41 %29.99 in10.0 miWest (270°)9.2 mphClear
4:55 PM51.8 °F30.2 °F44 %29.99 in10.0 miWest (280°)9.2 mphClear
5:15 PM51.8 °F28.4 °F41 %29.99 in10.0 miWest (270°)10.4 mphClear
5:35 PM51.8 °F30.2 °F44 %29.99 in10.0 miWSW (250°)9.2 mphClear
5:55 PM50.0 °F32.0 °F50 %29.99 in10.0 miWSW (250°)5.8 mphClear
6:15 PM46.4 °F32.0 °F57 %29.99 in10.0 miWest (270°)3.5 mphClear
6:35 PM46.4 °F30.2 °F53 %29.99 in10.0 miWest (260°)6.9 mphClear
6:55 PM44.6 °F28.4 °F53 %29.99 in10.0 miWSW (250°)4.6 mphClear
7:15 PM44.6 °F28.4 °F53 %29.99 in10.0 miWSW (240°)4.6 mphClear
7:35 PM42.8 °F28.4 °F57 %29.99 in10.0 miWSW (240°)5.8 mphClear
7:55 PM42.8 °F28.4 °F57 %29.99 in10.0 miWSW (240°)5.8 mphClear
8:15 PM42.8 °F28.4 °F57 %29.99 in10.0 miWest (260°)6.9 mphClear
8:35 PM41.0 °F30.2 °F65 %30.00 in10.0 miWest (260°)5.8 mphClear
8:55 PM41.0 °F30.2 °F65 %30.00 in10.0 miWest (260°)6.9 mphClear
9:15 PM41.0 °F30.2 °F65 %30.00 in10.0 miWSW (250°)4.6 mphClear
9:35 PM39.2 °F30.2 °F70 %30.00 in10.0 miCalmClear
9:55 PM37.4 °F30.2 °F75 %30.01 in10.0 miCalmClear
10:15 PM37.4 °F30.2 °F75 %30.01 in10.0 miCalmClear
10:35 PM37.4 °F30.2 °F75 %30.01 in10.0 miCalmClear
10:55 PM35.6 °F30.2 °F81 %30.02 in10.0 miCalmClear
11:15 PM35.6 °F30.2 °F81 %30.02 in10.0 miSSW (210°)3.5 mphClear
11:35 PM32.0 °F30.2 °F93 %30.02 in10.0 miCalmClear
11:55 PM33.8 °F30.2 °F87 %30.02 in10.0 miSouth (180°)3.5 mphClear
Hourly data recorded from KOUN, located miles away from Norman - University of Oklahoma, Oklahoma







STORIES FROM OUR PARTNERS